Вернуться в каталог

FENGYUN 1C DEB

LostPO
NORAD 31954·DEBRIS·🇨🇳 China

Запущен May 10, 1999 с Taiyuan Satellite Launch Center

Loading…

Ближайшие Пролёты (ближайшие 24 часа)

TLE

УстаревшееSource: Space-Track

Эпоха: Jun 22, 2022, 03:45 UTC

1 31954U 99025CNF 22173.15635971  .00001047  00000-0  71848-3 0  9992
2 31954  98.1507 297.0527 0094008 166.2118 194.1649 13.99282177773619

Отслеживайте FENGYUN 1C DEB в реальном времени с AllMySat

Download on the App Store